LANDSAT 4 1 13367U 82072A 12039.90451089 .00003086 00000-0 21840-3 0 9737 2 13367 98.2648 28.8752 0016425 327.2628 32.7575 15.05603322589748 TDRS 1 1 13969U 83026B 12037.00993769 .00000008 00000-0 10000-3 0 3720 2 13969 13.7328 3.4869 0018144 116.0153 244.2198 0.98743600 78573 LANDSAT 5 1 14780U 84021A 12039.78370677 -.00003031 00000-0 -66287-3 0 6599 2 14780 98.1624 107.8926 0002989 341.1148 18.9680 14.57133235486144 ERBS 1 15354U 84108B 12038.70205965 .00003600 00000-0 18376-3 0 8667 2 15354 56.9837 123.6715 0019665 56.7941 303.4985 15.19030039498545 TDRS 3 1 19548U 88091B 12038.16600646 -.00000290 00000-0 10000-3 0 8025 2 19548 13.4965 29.6838 0013994 337.0575 140.9833 1.00277788 72826 TDRS 4 1 19883U 89021B 12039.09001048 -.00000013 00000-0 00000+0 0 1947 2 19883 10.7232 35.5797 0012412 206.1647 153.8698 0.98482835256390 HST 1 20580U 90037B 12037.98935604 .00001450 00000-0 95032-4 0 9398 2 20580 28.4702 281.8885 0003297 105.0370 255.0571 15.02166594994980 TDRS 5 1 21639U 91054B 12038.48257657 .00000099 00000-0 10000-3 0 47 2 21639 11.8876 44.0134 0016203 325.6742 133.4471 1.00269111 75142 TOPEX/POSEIDON 1 22076U 92052A 12039.57434790 -.00000038 00000-0 10000-3 0 8084 2 22076 66.0372 223.3342 0007148 264.8631 95.1568 12.80964325912020 TDRS 6 1 22314U 93003B 12038.87500000 .00000066 00000-0 00000+0 0 218 2 22314 11.3436 47.0399 0003908 280.6737 331.5552 1.01069679 69869 TDRS 7 1 23613U 95035B 12038.95585470 -.00000192 00000-0 10000-3 0 1511 2 23613 12.9055 37.2640 0033353 334.9216 194.2908 1.00274379 60671 RXTE (XTE) 1 23757U 95074A 12038.91851261 .00004281 00000-0 11424-3 0 5745 2 23757 22.9893 335.9027 0007240 235.5588 124.4285 15.33209179893766 TRMM 1 25063U 97074A 12039.10533705 .00014991 00000-0 20741-3 0 8958 2 25063 34.9628 69.5206 0000594 244.9928 115.0729 15.56190697810647 KIKU-7 (ETS-VII) 1 25064U 97074B 12039.24113568 .00005347 00000-0 17665-3 0 5453 2 25064 34.9715 39.9737 0005491 355.1761 4.8902 15.30713221788734 ISS (ZARYA) 1 25544U 98067A 12039.88430858 .00009695 00000-0 12861-3 0 9742 2 25544 51.6426 50.6318 0020377 22.4849 49.1896 15.58765382757856 LANDSAT 7 1 25682U 99020A 12039.75510497 .00000163 00000-0 46169-4 0 7972 2 25682 98.2136 109.8553 0000953 127.1549 232.9725 14.57106299681831 FUSE 1 1 25791U 99035A 12039.68149338 .00000344 00000-0 49012-4 0 1800 2 25791 24.9839 162.4239 0010241 349.2987 10.7305 14.41984937666035 TERRA 1 25994U 99068A 12039.70243548 .00000171 00000-0 48052-4 0 7056 2 25994 98.2072 115.6209 0000952 72.1737 287.9561 14.57092239645900 TDRS 8 1 26388U 00034A 12039.66722182 -.00000225 00000-0 10000-3 0 5825 2 26388 3.6529 79.3065 0003879 210.1603 178.0575 1.00275060 42622 EO-1 1 26619U 00075A 12039.69475087 .00000362 00000-0 80436-4 0 613 2 26619 98.0944 107.2635 0010535 152.3499 207.8250 14.62518316597508 TIMED 1 26998U 01055B 12039.06504922 .00000545 00000-0 68423-4 0 1025 2 26998 74.0710 239.2006 0000690 111.7701 248.3575 14.84791700550825 TDRS 9 1 27389U 02011A 12039.23674624 -.00000264 00000-0 00000+0 0 8342 2 27389 1.5113 145.7498 0015160 227.0443 168.9953 1.00278265 37872 AQUA 1 27424U 02022A 12039.10405044 .00000395 00000-0 97793-4 0 2076 2 27424 98.2218 341.4348 0001213 82.8373 277.2958 14.57092473519429 TDRS 10 1 27566U 02055A 12037.78222953 .00000084 00000-0 00000-0 0 5874 2 27566 1.2485 62.8102 0013381 201.5264 339.2328 1.00275131 33672 SORCE 1 27651U 03004A 12038.96115702 .00000885 00000-0 12130-3 0 7161 2 27651 39.9976 23.5314 0026592 224.9862 134.8774 14.83290990489652 GALEX 1 27783U 03017A 12038.66594152 .00000474 00000-0 74992-4 0 4232 2 27783 28.9986 142.0901 0004309 219.4038 140.6217 14.60234990468996 GP-B 1 28230U 04014A 12039.86521634 .00000452 00000-0 62782-4 0 3369 2 28230 89.9214 150.0837 0002188 64.6634 295.4813 14.76468089420373 AURA 1 28376U 04026A 12038.83487854 .00000404 00000-0 99816-4 0 3651 2 28376 98.2239 343.3211 0001148 92.8494 267.2820 14.57103376402435 SWIFT 1 28485U 04047A 12038.35077816 .00001977 00000-0 14177-3 0 834 2 28485 20.5572 45.2437 0013978 162.7450 197.3467 14.94334311394105 THEMIS A 1 30580U 07004A 12039.20833333 .00000017 00000-0 00000+0 0 2942 2 30580 6.6091 130.2345 7933785 308.8479 351.9396 1.00265670 17594 THEMIS D 1 30797U 07004D 12039.16666667 -.00000002 00000-0 00000+0 0 4487 2 30797 4.4342 64.6738 7696178 13.2356 351.9721 1.00279986 17438 THEMIS E 1 30798U 07004E 12039.16666667 -.00000012 00000-0 10000-3 0 4732 2 30798 3.6575 81.3931 7897443 359.5587 348.1775 1.00281387 17591 AIM 1 31304U 07015A 12039.33410321 .00002625 00000-0 24572-3 0 6070 2 31304 97.8262 148.1003 0009645 253.9100 106.1016 14.94930215260942 C/NOFS 1 32765U 08017A 12039.43286714 .00015935 00000-0 67111-3 0 9799 2 32765 13.0059 93.6726 0275156 275.8982 81.0020 14.92178204207135 FGRST (GLAST) 1 33053U 08029A 12039.83438456 .00000281 00000-0 00000+0 0 9809 2 33053 25.5824 306.0236 0013676 63.1700 297.0249 15.06003849201699 WISE 1 36119U 09071A 12038.98239962 .00001941 00000-0 10795-3 0 6277 2 36119 97.5172 44.9489 0002786 345.3235 14.7915 15.14852450118775